Weather History for Wenatchee, WA

Change the Weather History Date:

Friday, September 30, 2011

  Actual Average Record
Temperature  
Mean Temperature 58 °F 52 °F  
Max Temperature 77 °F 66 °F 85 °F (1970)
Min Temperature 38 °F 38 °F 34 °F (1985)
Degree Days  
Heating Degree Days 7 13  
Month to date heating degree days 153 245  
Since 1 July heating degree days 280 356  
Cooling Degree Days 0 0  
Month to date cooling degree days 46 16  
Year to date cooling degree days 161 249  
Growing Degree Days 12 (Base 50)    
Moisture  
Dew Point 40 °F    
Average Humidity 50    
Maximum Humidity 71    
Minimum Humidity 28    
Precipitation  
Precipitation T in 0.03 in 0.11 in (2007)
Month to date precipitation 0.04 0.63  
Year to date precipitation 12.57 11.05  
Snow  
Snow 0.00 in 0.00 in - ()
Month to date snowfall 0.0 0.0  
Since 1 July snowfall 0.0 0.0  
Since 1 September snowfall 0.0 0.0  
Snow Depth 0.00 in    
Sea Level Pressure  
Sea Level Pressure 29.85 in    
Wind  
Wind Speed 4 mph (WNW)    
Max Wind Speed 9 mph    
Max Gust Speed -    
Visibility 9 miles    
Events      
T = Trace of Precipitation, MM = Missing Value Source: NWS Daily Summary

Daily Weather History Graph

Daily Weather History Graph

Search for Another Location

Airport:

Trip Planner

Search our weather history database for the weather conditions in past years. The results will help you decide how hot, cold, wet, or windy it might be!

Date:

Astronomy

Sep. 30, 2011 Rise Set
Actual Time 6:58 AM PDT 6:42 PM PDT
Civil Twilight 6:27 AM PDT 7:13 PM PDT
Nautical Twilight 5:51 AM PDT 7:48 PM PDT
Astronomical Twilight 5:15 AM PDT 8:24 PM PDT
Moon 11:24 AM PDT (9/30) 8:26 PM PDT (9/30)
Length of Visible Light 12h 45m
Length of Day
11h 44m
Waxing Crescent, 16% of the Moon is Illuminated
Sep 30
Waxing Crescent
Oct 3
First Quarter
Oct 11
Full
Oct 19
Last Quarter
Oct 26
New

Hourly Weather History & Observations

Time (PDT) Temp. Dew Point Humidity Pressure Visibility Wind Dir Wind Speed Gust Speed Precip Events Conditions
12:55 AM 50.0 °F 37.9 °F 63% 29.95 in 10.0 mi Calm Calm - N/A   Clear
1:55 AM 51.1 °F 37.9 °F 61% 29.95 in 7.0 mi West 8.1 mph - N/A   Clear
2:55 AM 51.1 °F 37.9 °F 61% 29.94 in 8.0 mi Calm Calm - N/A   Clear
3:55 AM 48.9 °F 37.9 °F 66% 29.94 in 9.0 mi WNW 5.8 mph - N/A   Clear
4:55 AM 48.0 °F 37.9 °F 68% 29.93 in 9.0 mi NW 4.6 mph - N/A   Clear
5:55 AM 48.9 °F 37.9 °F 66% 29.92 in 6.0 mi West 8.1 mph - N/A   Haze
6:55 AM 46.9 °F 37.9 °F 71% 29.92 in 8.0 mi Calm Calm - N/A   Clear
7:55 AM 48.9 °F 37.9 °F 66% 29.93 in 7.0 mi NW 9.2 mph - N/A   Clear
8:55 AM 52.0 °F 39.0 °F 61% 29.92 in 6.0 mi West 4.6 mph - N/A   Haze
9:55 AM 55.9 °F 39.9 °F 55% 29.91 in 9.0 mi Calm Calm - N/A   Clear
10:55 AM 59.0 °F 39.9 °F 49% 29.90 in 9.0 mi Calm Calm - N/A   Clear
11:55 AM 63.0 °F 39.9 °F 43% 29.87 in 10.0 mi Calm Calm - N/A   Clear
12:55 PM 66.9 °F 41.0 °F 39% 29.84 in 10.0 mi Variable 3.5 mph - N/A   Clear
1:55 PM 70.0 °F 37.9 °F 31% 29.83 in 10.0 mi SSE 4.6 mph - N/A   Partly Cloudy
2:55 PM 71.1 °F 39.0 °F 31% 29.81 in 10.0 mi West 5.8 mph - N/A   Clear
3:55 PM 73.0 °F 37.9 °F 28% 29.80 in 10.0 mi Calm Calm - N/A   Clear
4:55 PM 77.0 °F 41.0 °F 28% 29.77 in 10.0 mi West 8.1 mph - N/A   Clear
5:55 PM 75.0 °F 44.1 °F 33% 29.76 in 10.0 mi NW 6.9 mph - N/A   Clear
6:55 PM 72.0 °F 43.0 °F 35% 29.75 in 10.0 mi NW 8.1 mph - N/A   Clear
7:55 PM 68.0 °F 42.1 °F 39% 29.77 in 10.0 mi SW 3.5 mph - N/A   Clear
8:55 PM 64.9 °F 42.1 °F 43% 29.77 in 10.0 mi WNW 4.6 mph - N/A   Clear
9:55 PM 63.0 °F 43.0 °F 48% 29.77 in 10.0 mi WNW 6.9 mph - N/A   Clear
10:55 PM 60.1 °F 43.0 °F 53% 29.77 in 10.0 mi Calm Calm - N/A   Clear
11:55 PM 61.0 °F 43.0 °F 52% 29.77 in 10.0 mi WNW 5.8 mph - N/A   Partly Cloudy